Home   Weather   Wood Buffalo   Past weeks

Flag for Canada Past Weather in Wood Buffalo, Alberta, Canada — Yesterday and Last 2 Weeks

Now
-17 °F

Passing clouds.


Feels Like: -17 °F
Forecast: -14 / -6 °F
Wind: 2 mph from West

Location: Fort Mcmurray

Current Time: Dec 7, 2016 at 7:14:05 pm

Latest Report: Dec 7, 2016 at 6:00 pm


Visibility: 9 mi

Pressure: 30.97 "Hg

Humidity: 83%

Dew Point: -20 °F

Location of Wood BuffaloLocation

Past Weather in Wood Buffalo — Graph

°F

Wood Buffalo Temperature Yesterday

Maximum temperature yesterday: 1 °F (at 12:00 am)
Minimum temperature yesterday: -4 °F (at 10:01 pm)
Average temperature yesterday: 1 °F

High & Low Weather Summary for the Past Weeks

 TemperatureHumidityPressure
High36 °F (Dec 3, 2:00 pm)100% (Nov 25, 6:04 pm)30.95 "Hg (Nov 25, 6:04 pm)
Low-9 °F (Dec 7, 9:00 am)70% (Dec 3, 2:00 pm)29.45 "Hg (Nov 27, 10:00 pm)
Average20 °F86%29.95 "Hg
* Reported Nov 22 5:00 pm — Dec 7 5:00 pm, Wood Buffalo, Weather by CustomWeather, © 2016

Note: Actual official high and low records may vary slightly from our data, if they occured in-between our weather recording intervals... More about our weather records

Advertising

Wood Buffalo Weather History for the Previous 24 Hours

Scroll right to see more
 ConditionsComfort  
Time TempWeatherWind HumidityBarometerVisibility
5:00 pm
Wed, Dec 7
-9 °FClear.3 mph77%30.95 "Hg9 mi
4:00 pm-9 °FClear.5 mph77%30.94 "Hg9 mi
3:00 pm-8 °FPassing clouds.6 mph70%30.92 "Hg9 mi
2:00 pm-8 °FPassing clouds.7 mph70%30.91 "Hg9 mi
1:00 pm-8 °FSunny.8 mph77%30.90 "Hg9 mi
12:00 pm-8 °FSunny.9 mph70%30.88 "Hg9 mi
11:00 am-9 °FScattered clouds.8 mph77%30.88 "Hg9 mi
10:00 am-9 °FSunny.8 mph77%30.85 "Hg9 mi
9:00 am-9 °FLight snow. Passing clouds.8 mph77%30.84 "Hg9 mi
8:00 am-8 °FLight snow. Passing clouds.8 mph77%30.81 "Hg9 mi
7:48 am-8 °FLight snow. Passing clouds.9 mph77%30.81 "Hg6 mi
7:00 am-8 °FLight snow. Passing clouds.9 mph77%30.80 "Hg9 mi
6:00 am-8 °FLight snow. Clear.7 mph84%30.78 "Hg9 mi
5:00 am-6 °FLight snow. Mostly cloudy.7 mph77%30.76 "Hg8 mi
4:00 am-6 °FLight snow. Mostly cloudy.9 mph84%30.75 "Hg6 mi
3:00 am-4 °FLight snow. Mostly cloudy.8 mph77%30.73 "Hg3 mi
2:00 am-4 °FLight snow. Passing clouds.8 mph77%30.71 "Hg9 mi
1:00 am-4 °FLight snow. Overcast.9 mph77%30.69 "Hg9 mi
12:00 am-4 °FLight snow. Overcast.8 mph77%30.67 "Hg9 mi
11:01 pm
Tue, Dec 6
-4 °FLight snow. Passing clouds.8 mph77%30.65 "Hg9 mi
10:01 pm-4 °FPassing clouds.8 mph84%30.63 "Hg9 mi
9:00 pm-2 °FOvercast.9 mph77%30.61 "Hg9 mi
8:00 pm0 °FLight snow. Overcast.10 mph78%30.60 "Hg9 mi
7:00 pm0 °FLight snow. Overcast.8 mph84%30.59 "Hg9 mi
Weather by CustomWeather, © 2016

See weather overviewHow to use our weather pages